[Iaude] MPEC F22: 2024 FJ [a=2.50,e=0.58,i=5.0,H=25.1]
    mpec at cfa.harvard.edu 
    mpec at cfa.harvard.edu
       
    Tue Mar 19 02:48:09 EDT 2024
    
    
  
M.P.E.C. 2024-F22                                Issued 2024 March 19, 06:46 UT
     The Minor Planet Electronic Circulars contain information on unusual
         minor planets, routine data on comets and natural satellites,
         and occasional editorial announcements.  They are published
    on behalf of Division F of the International Astronomical Union by the
          Minor Planet Center, Smithsonian Astrophysical Observatory,
                          Cambridge, MA 02138, U.S.A.
			  
             Prepared using the Tamkin Foundation Computer Network
                              MPC at CFA.HARVARD.EDU
            URL https://www.minorplanetcenter.net/    ISSN 1523-6714
                                    2024 FJ                                     
Observations:
     K24F00J 1C2024 03 05.26843 10 35 52.93 +09 18 31.8          21.7 GVEF022G96
     K24F00J 1C2024 03 05.27368 10 35 53.67 +09 18 39.9          22.2 GVEF022G96
     K24F00J 1C2024 03 05.28419 10 35 55.17 +09 18 54.7          20.9 GVEF022G96
     K24F00J*1C2024 03 18.19800311 34 43.237+16 34 51.17         20.54GVEF022G96
     K24F00J 1C2024 03 18.20364211 34 45.545+16 35 06.61         21.08GVEF022G96
     K24F00J 1C2024 03 18.20929511 34 47.870+16 35 21.98         21.33GVEF022G96
     K24F00J 1C2024 03 18.21494411 34 50.185+16 35 37.28         20.20GVEF022G96
     K24F00J 1C2024 03 18.22037811 34 52.352+16 35 52.55         21.37GVEF022G96
     K24F00J 1C2024 03 18.22102411 34 52.633+16 35 53.88         21.59GVEF022G96
     K24F00J 1C2024 03 18.22167111 34 52.892+16 35 55.72         20.89GVEF022G96
     K24F00J  C2024 03 18.31260011 35 33.864+16 40 10.96         20.79wXEF022F52
     K24F00J  C2024 03 18.32507311 35 39.000+16 40 45.46         21.08wXEF022F52
     K24F00J  C2024 03 18.33762611 35 44.156+16 41 19.80         21.10wXEF022F52
     K24F00J KC2024 03 19.19174011 42 12.010+17 19 20.20         21.28GVEF022I52
     K24F00J KC2024 03 19.19388511 42 13.030+17 19 26.10         20.99GVEF022I52
     K24F00J KC2024 03 19.19602811 42 13.940+17 19 32.00         20.38GVEF022I52
     K24F00J KC2024 03 19.24131611 42 31.92 +17 21 30.2          20.7 GVEF022H21
     K24F00J KC2024 03 19.24411311 42 33.17 +17 21 37.9          20.9 GVEF022H21
     K24F00J KC2024 03 19.24691011 42 34.41 +17 21 45.2          20.9 GVEF022H21
     K24F00J KC2024 03 19.24970811 42 35.62 +17 21 53.0          20.9 GVEF022H21
Observer details:
F52 Pan-STARRS 2, Haleakala.  Observers J. Herman, T. Lowe, P. Minguez, A.
    Schultz, I. Smith.  Measurers K. Chambers, T. de Boer, J. Fairlamb, H.
    Gao, M. Huber, C.-C. Lin, E. Magnier, Y. Ramanjooloo, R. Wainscoat, R.
    Weryk.  1.8-m Ritchey-Chretien + CCD.
G96 Mt. Lemmon Survey.  Observers G. J. Leonard, D. Rankin.  Measurers B.
    Gray, D. Rankin, F. C. Shelly, T. Beuden, V. F. Carvajal, D. Fay, J. B.
    Fazekas, D. C. Fuls, A. R. Gibbs, A. D. Grauer, H. Groeller, J. K. Hogan,
    R. A. Kowalski, S. M. Larson, G. J. Leonard, R. L. Seaman, K. W.
    Wierzchos.  1.5-m reflector + 10K CCD.
H21 Astronomical Research Observatory, Westfield.  Observer R. Holmes.
    Measurers T. Linder, R. Holmes, L. Horn.  0.76-m f/3.0 astrograph + CCD.
I52 Steward Observatory, Mt. Lemmon Station.  Observer R. A. Kowalski.
    Measurers T. Beuden, V. F. Carvajal, D. Fay, J. B. Fazekas, D. C. Fuls, A.
    R. Gibbs, A. D. Grauer, H. Groeller, J. K. Hogan, R. A. Kowalski, S. M.
    Larson, G. J. Leonard, D. Rankin, R. L. Seaman, F. C. Shelly, K. W.
    Wierzchos.  1.0-m prime focus + CCD.
Orbital elements:
2024 FJ                                                  Earth MOID = 0.0719 AU
Epoch 2024 Mar. 31.0 TT = JDT 2460400.5                 MPC                     
M 357.19801              (2000.0)            P               Q                  
n   0.24878535     Peri.   40.74957     -0.91410873     +0.40468984             
a   2.5037225      Node   163.07058     -0.39080882     -0.86285143             
e   0.5804733      Incl.    4.95016     -0.10804486     -0.30284245             
P   3.96           H   25.12          G   0.15           U   8                  
Residuals in seconds of arc
240305 G96  0.2-  0.3-    240318 G96  0.3-  0.4+    240319 I52  0.3+  0.0
240305 G96  0.1-  0.3+    240318 G96  0.0   0.0     240319 I52  0.2-  0.1-
240305 G96  0.3+  0.0     240318 G96  0.1-  0.0     240319 H21  0.1-  0.0
240318 G96  0.1-  0.2-    240318 F52  0.1-  0.0     240319 H21  0.1+  0.1+
240318 G96  0.0   0.1-    240318 F52  0.0   0.3+    240319 H21  0.2+  0.2-
240318 G96  0.2+  0.1-    240318 F52  0.2+  0.2+    240319 H21  0.1-  0.1-
240318 G96  0.4+  0.1-    240319 I52  0.6-  0.1+
Ephemeris:
2024 FJ                  a,e,i = 2.50, 0.58, 5                   q = 1.0504
Date    TT    R. A. (2000) Decl.     Delta      r    Elong.  Phase     V
2024 02 18    10 09 38.8 +05 12 23   0.2554  1.2420   173.0     5.6    23.1
...
2024 03 04    10 32 38.5 +08 49 43   0.1652  1.1557   173.0     6.0    22.0
...
2024 03 12    10 59 12.2 +12 32 22   0.1268  1.1181   168.2    10.5    21.5
...
2024 03 18    11 33 14.6 +16 26 34   0.1031  1.0947   163.9    14.6    21.2
2024 03 19    11 40 39.0 +17 11 05   0.09962 1.0912   163.0    15.4    21.1
2024 03 20    11 48 39.4 +17 56 50   0.09633 1.0879   162.1    16.4    21.1
...
2024 03 26    12 51 02.2 +22 36 27   0.08068 1.0707   154.1    24.0    20.9
...
2024 04 03    14 47 34.2 +25 51 16   0.07395 1.0557   137.7    39.6    21.2
...
2024 04 18    17 32 27.2 +18 28 15   0.1023  1.0539   116.6    58.4    22.4
A. U. Tomatic                (C) Copyright 2024 MPC           M.P.E.C. 2024-F22
    
    
More information about the Iaude
mailing list